Regional Weather Roundup
Issued by NWS

Home | Current Version | Previous Version | Text Only | Print | Product List | Glossary Off
Versions: 1 2 3 4 5 6 7 8 9 10 11 12 13 14 15 16 17 18 19 20 21 22 23 24 25 26 27 28 29 30 31 32 33 34 35 36 37 38 39 40 41 42 43 44 45 46 47 48 49 50

000
ASUS43 KLOT 210006
RWRIL

ILLINOIS REGIONAL WEATHER ROUNDUP
NATIONAL WEATHER SERVICE CHICAGO/ROMEOVILLE IL
600 PM CST SAT DEC 20 2014

NOTE: "FAIR" INDICATES FEW OR NO CLOUDS BELOW 12,000 FEET WITH NO
SIGNIFICANT WEATHER AND/OR OBSTRUCTIONS TO VISIBILITY.

* THESE STATIONS ARE NOT UNDER NWS QUALITY CONTROL. THEY ALSO MAY NOT
  REPORT WEATHER SUCH AS PRECIPITATION OR FOG.

ILZ001-002-007-009-015-016-024-210100-
NORTHWEST ILLINOIS

CITY           SKY/WX    TMP DP  RH WIND       PRES   REMARKS
MOLINE         CLOUDY    34  28  79 SE5       30.21S WCI  30
6HR MIN TEMP:  33; 6HR MAX TEMP:  34;

STERLING*      CLOUDY    32  27  80 SE3       30.23S
SAVANNA*       CLOUDY    33  27  78 SE5       30.23R WCI  28
$$

ILZ003-004-008-010-011-017-018-210100-
NORTH CENTRAL ILLINOIS

CITY           SKY/WX    TMP DP  RH WIND       PRES   REMARKS
ROCKFORD       CLOUDY    31  25  78 SE6       30.26R WCI  25
6HR MIN TEMP:  30; 6HR MAX TEMP:  31; 6HR PCP: TRACE;

FREEPORT*      CLOUDY    30  26  85 E3        30.25R
ROCHELLE*      CLOUDY    31  28  90 SE6       30.24S WCI  25
DE KALB*       CLOUDY    29  26  88 SE5       30.24S WCI  24
PERU*          CLOUDY    33  29  85 SE5       30.25S WCI  29
$$

ILZ005-006-012>014-019>023-210100-
NORTHEAST ILLINOIS

CITY           SKY/WX    TMP DP  RH WIND       PRES   REMARKS
CHICAGO-OHARE  CLOUDY    32  24  72 S3        30.25S
6HR MIN TEMP:  31; 6HR MAX TEMP:  33; 6HR PCP: TRACE;

CHICAGO-MIDWAY FLURRIES  34  26  72 S6        30.27R WCI  29
6HR MIN TEMP:  34; 6HR MAX TEMP:  35; 6HR PCP: TRACE;

AURORA         CLOUDY    32  26  78 SE5       30.25S WCI  27
6HR MIN TEMP:  31; 6HR MAX TEMP:  33;

LANSING*       CLOUDY    31  27  83 S3        30.27F
JOLIET*        CLOUDY    32  26  79 CALM      30.26S
WAUKEGAN       CLOUDY    30  24  78 CALM      30.25R
6HR MIN TEMP:  30; 6HR MAX TEMP:  32;

DUPAGE AIRPORT CLOUDY    31  26  82 S5        30.25R WCI  26
6HR MIN TEMP:  31; 6HR MAX TEMP:  33;

KANKAKEE*      CLOUDY    32  28  86 CALM      30.28R
WHEELING       CLOUDY    33  24  69 SW7       30.28R WCI  27
6HR MIN TEMP:  31; 6HR MAX TEMP:  33;

MORRIS*        CLOUDY    32  29  90 SE3       30.26R
ROMEOVILLE*    CLOUDY    32  26  80 S3        30.26S
NORTHERLY ISL    N/A     33  25  72 S5          N/A  WCI  29
$$

LMZ740>746-210100-
SOUTHERN LAKE MICHIGAN

STATION/POSITION SKY/WX   TEMP    WIND        PRES    VSBY  WAVE
                          AIR SEA DIR/SP/G                  HT/PER
                          (F)     (DEG/KT/KT) (MB)    (MI)  (FT/S)
WAUKEGAN HARBOR            32     230/  2/  3   N/A
HARRISON CRIB              33     180/ 10/ 11   N/A
BURNHAM HARBOR             33     190/  7/  7   N/A
CALUMET HARBOR             33     180/  2/  4 1023.7F
$$

ILZ025>027-034>036-040-047-049-050-058-095>099-210100-
WEST-CENTRAL ILLINOIS

CITY           SKY/WX    TMP DP  RH WIND       PRES   REMARKS
QUINCY         CLOUDY    36  33  89 SE7       30.21R FOG     WCI  30
GALESBURG*     CLOUDY    33  30  88 SE5       30.22R WCI  29
MACOMB*        CLOUDY    35  32  90 SE6       30.24S FOG     WCI  30
JACKSONVILLE*  CLOUDY    40  34  81 CALM      30.23S
PITTSFIELD*    CLOUDY    37  34  88 SE3       30.23S
$$

ILZ028>032-037-038-041>044-048-051>054-059>061-210100-
CENTRAL ILLINOIS

CITY           SKY/WX    TMP DP  RH WIND       PRES   REMARKS
PONTIAC        CLOUDY    33  30  89 SE3       30.27R
BLOOMINGTON    CLOUDY    32  30  92 S6        30.26R WCI  26
DECATUR        CLOUDY    33  28  81 SE6       30.26S WCI  28
PEORIA         CLOUDY    35  27  72 SE6       30.25R WCI  30
6HR MIN TEMP:  34; 6HR MAX TEMP:  37;

LACON*         CLOUDY    32  27  81 S7        30.24S WCI  26
LINCOLN*       CLOUDY    35  30  82 SE6       30.26S WCI  30
SPRINGFIELD    CLOUDY    38  31  76 SE7       30.25R WCI  33
6HR MIN TEMP:  37; 6HR MAX TEMP:  39;

TAYLORVILLE    CLOUDY    36  32  87 SE5       30.25S WCI  32
$$

ILZ033-039-045-046-055>057-062-063-210100-
EAST-CENTRAL ILLINOIS

CITY           SKY/WX    TMP DP  RH WIND       PRES   REMARKS
CHAMPAIGN      CLOUDY    32  27  81 SE6       30.27R WCI  26
DANVILLE*      CLOUDY    32  28  83 S3        30.25S
RANTOUL*       CLOUDY    33  30  89 S3        30.27R
MATTOON        CLEAR     31  26  82 SE3       30.26S
PARIS*         CLOUDY    33  29  88 CALM      30.29S
$$

ILZ079-100>102-210100-
SOUTHWEST ILLINOIS

CITY           SKY/WX    TMP DP  RH WIND       PRES   REMARKS
ALTON          CLOUDY    39  32  75 SE7       30.25R WCI  34
BELLEVILLE     CLOUDY    39  34  81 E6        30.24S
CAHOKIA*       CLOUDY    42  34  73 SE6       30.24S
SPARTA*        CLOUDY    39  32  75 SE6       30.26S WCI  35
$$

ILZ064>066-069>071-074>076-080>082-084>086-088>090-092>094-210100-
SOUTH-CENTRAL ILLINOIS

CITY           SKY/WX    TMP DP  RH WIND       PRES   REMARKS
CARBONDALE     CLOUDY    36  30  79 E3        30.27R
6HR MIN TEMP:  35; 6HR MAX TEMP:  44;

CAIRO*         CLEAR     38  31  73 CALM      30.26S
EFFINGHAM*     PTCLDY    31  25  76 CALM      30.29S
MARION         PTCLDY    34  30  86 E6        30.27R WCI  29
MT. VERNON     CLOUDY    37  27  65 E3        30.28R
CENTRALIA*     CLOUDY    37  29  72 SE3       30.26S
SALEM*         CLOUDY    39  29  67 CALM      30.26S
METROPOLIS*    CLEAR     36  31  83 CALM      30.26R
$$

ILZ067-068-072-073-078-083-087-091-210100-
SOUTHEAST ILLINOIS

CITY           SKY/WX    TMP DP  RH WIND       PRES   REMARKS
LAWRENCEVILLE  CLEAR     31  27  85 E5        30.30R WCI  26
FLORA*         CLEAR     34  29  83 E3        30.29R
FAIRFIELD*     CLOUDY    34  28  79 CALM      30.27S
HARRISBURG*    CLOUDY    37  30  75 NE3       30.29R
ROBINSON*      CLEAR     30  27  88 CALM      30.31R
CARMI*         CLEAR     31  28  87 E6        30.29R WCI  25
$$

ABBREVIATIONS USED IN REMARKS
   TC - TEMPERATURE IN CELSIUS
  WCI - WIND CHILL INDEX
   HX - HEAT INDEX
  VSB - VISIBILITY
$$



USA.gov is the U.S. government's official web portal to all federal, state and local government web resources and services.